BEESAT-2
1 39136U 13015G 17322.47851475 .00002112 00000-0 11952-3 0 9995
2 39136 64.8704 101.1031 0032927 260.4135 99.3269 15.15621702252652
ZACUBE-1
1 39417U 13066B 17321.89221091 .00000393 00000-0 55864-4 0 9993
2 39417 097.6123 356.5426 0060477 126.3321 234.3496 14.80820231215522
TRITON-1
1 39427U 13066M 17321.94562942 .00000301 00000-0 56222-4 0 9991
2 39427 097.6364 326.9911 0113367 215.6139 143.7465 14.67562635213406
GOMX-1
1 39430U 13066Q 17322.48885417 .00000306 00000-0 65011-4 0 9991
2 39430 97.6760 309.8504 0150355 275.8666 82.5413 14.58974326212427
LO-74
1 39440U 13066AA 17322.52431004 .00000333 00000-0 53318-4 0 9993
2 39440 97.6161 345.1456 0081242 158.6447 201.8186 14.75558983214853
AO-73
1 39444U 13066AE 17321.92991502 .00000477 00000-0 65377-4 0 9991
2 39444 097.6139 357.8311 0059696 122.4706 238.2298 14.81575936213780
SPROUT
1 39770U 14029E 17322.45996960 .00001020 00000-0 12130-3 0 9998
2 39770 97.8757 60.3748 0009189 172.5945 187.5437 14.86530187189050
DUCHIFAT-1
1 40021U 14033M 17321.81799730 .00000681 00000-0 76291-4 0 9990
2 40021 097.9149 235.1676 0013511 149.4524 210.7483 14.90098196185475
NANOSATCBR1
1 40024U 14033Q 17322.29397726 .00000629 00000-0 72107-4 0 9999
2 40024 97.9099 234.2793 0012843 149.2071 210.9902 14.89393757185482
EO-79
1 40025U 14033R 17321.75215186 .00000506 00000-0 60350-4 0 9990
2 40025 97.9071 232.5423 0012962 154.4104 205.7757 14.88567612185337
DTUSAT-2
1 40030U 14033W 17321.72931497 .00000475 00000-0 57569-4 0 9996
2 40030 97.9028 231.4692 0012533 149.2679 210.9274 14.88182717185289
EO-80
1 40032U 14033Y 17322.18164510 .00000495 00000-0 59818-4 0 9994
2 40032 97.9036 231.9250 0012510 148.3360 211.8611 14.88119077185348
ANTELSAT
1 40034U 14033AA 17322.20299836 .00000364 00000-0 61662-4 0 9994
2 40034 97.8368 201.1771 0059353 156.1742 204.2234 14.73806224183617
VELOX-1
1 40057U 14034E 17322.33206906 .00000462 00000-0 72667-4 0 9996
2 40057 98.1939 64.9315 0009677 285.6231 74.3911 14.77271245182513
DAURIA DX 1
1 40071U 14037C 17322.50695535 .00000186 00000-0 31378-4 0 9991
2 40071 98.3510 79.8379 0007189 281.2631 78.7779 14.81088749181815
UKUBE-1
1 40074U 14037F 17322.47424561 .00000446 00000-0 61132-4 0 9999
2 40074 98.3616 84.4814 0003307 278.3043 81.7798 14.83650689182055
HODOYOSHI-1
1 40299U 14070B 17322.31406904 .00001011 00000-0 46492-4 0 9990
2 40299 97.3951 42.6669 0011471 273.5119 130.6498 15.22591378168396
CHUBUSAT-1
1 40300U 14070C 17322.51041667 .00001129 00000-0 53507-4 0 9991
2 40300 97.3861 39.5201 0018576 282.5411 260.7685 15.21225971168243
QSAT-EOS
1 40301U 14070D 17322.42012691 .00002588 00000-0 10898-3 0 9992
2 40301 97.3795 39.9408 0025417 275.9283 215.5904 15.23983081168313
FIREBIRD FU3
1 40377U 15003B 17322.48172876 .00004458 00000-0 18793-3 0 9990
2 40377 99.1102 177.2753 0133111 210.4575 148.8874 15.16306305154382
FIREBIRD FU4
1 40378U 15003C 17322.53813731 .00004161 00000-0 17555-3 0 9995
2 40378 99.1104 177.3902 0133326 210.1645 149.1860 15.16320948154394
GRIFEX
1 40379U 15003D 17322.51660119 .00002906 00000-0 13184-3 0 9993
2 40379 99.1139 174.4834 0139565 219.8831 139.2076 15.13656265154221
NO-84
1 40654U 15025D 17321.28280490 .00011144 00000-0 19879-3 0 01427
2 40654 055.0002 270.9631 0165986 291.8938 066.4227 15.36885882023226
NO-83
1 40655U 15025E 17321.27792856 .00027939 00000-0 36551-3 0 01640
2 40655 054.9812 235.2217 0127293 314.0029 045.0613 15.49340031023358
DEORBITSAIL
1 40719U 15032E 17321.65582534 .00000715 00000-0 11050-3 0 9997
2 40719 97.9633 213.3526 0017044 13.6802 346.4866 14.76238769126962
NUDT-PHONESAT
1 40900U 15049B 17322.50070423 .00004074 00000-0 18989-3 0 9991
2 40900 97.4426 328.3252 0015130 51.2426 309.0159 15.20352284119899
XW-2A
1 40903U 15049E 17322.53068391 .00003352 00000-0 86908-4 0 9993
2 40903 97.4083 350.1060 0016282 72.3505 287.9517 15.39615118121389
XW-2C
1 40906U 15049H 17322.49710125 .00001192 00000-0 67435-4 0 9994
2 40906 97.4572 324.9548 0016337 44.6834 315.5711 15.14867191119590
XW-2D
1 40907U 15049J 17322.53501942 .00001293 00000-0 72617-4 0 9995
2 40907 97.4543 324.7202 0015658 42.9051 317.3399 15.14994272119606
LILACSAT-2
1 40908U 15049K 17322.49535621 .00000719 00000-0 43878-4 0 9991
2 40908 97.4649 324.2988 0017232 42.3161 317.9396 15.13317861119500
XW-2F
1 40910U 15049M 17322.50697096 .00002092 00000-0 11197-3 0 9995
2 40910 97.4554 325.6318 0016390 40.0399 320.2038 15.16030157119527
XW-2B
1 40911U 15049N 17322.54532676 .00001245 00000-0 70115-4 0 9997
2 40911 97.4583 325.1812 0015581 43.3150 316.9304 15.14947288119502
DCBB
1 40912U 15049P 17322.42432385 .00002032 00000-0 10241-3 0 9999
2 40912 97.4517 327.8259 0016654 31.2823 107.0698 15.18187581119689
TW-1C
1 40926U 15051B 17322.45279098 .00011349 00000-0 23691-3 0 9994
2 40926 97.2132 0.9363 0010046 338.8735 133.3986 15.45638373120726
TW-1A
1 40928U 15051D 17322.48494137 .00003938 00000-0 10931-3 0 9990
2 40928 97.2117 355.5089 0012704 11.5318 98.8384 15.37413786120390
IO-86
1 40931U 15052B 17322.18252131 .00000699 00000-0 82714-5 0 9999
2 40931 5.9958 214.6961 0013071 264.4276 95.4527 14.76554413115769
GomX-3
1 40949U 98067HA 16292.18357804 .08527750 12374-4 77882-3 0 9992
2 40949 51.6055 106.7696 0006699 286.1344 73.8944 16.38002265 59645
LQSat
1 40958U 15057A 17322.45015728 .00000052 00000-0 15942-4 0 9993
2 40958 97.9647 34.9626 0016891 294.6606 65.2844 14.73000712113827
AO-85
1 40967U 15058D 17321.41609828 .00000191 00000-0 40387-4 0 01547
2 40967 064.7750 114.0260 0183078 022.6292 338.2753 14.75572000022401
ATHENOXAT-1
1 41168U 15077C 17322.27965438 .00002461 00000-0 10004-3 0 9990
2 41168 14.9808 123.2695 0012332 351.5009 211.2714 15.12190589106392
ChubuSat-2
1 41338U 16012B 17321.09306083 .00000457 00000-0 29113-4 0 9998
2 41338 31.0027 221.0659 0013840 133.8020 226.3761 14.99867846 95960
ChubuSat-3
1 41339U 16012C 17322.26504292 .00000417 00000-0 25823-4 0 9991
2 41339 31.0088 212.5232 0013757 152.2087 207.9289 15.00064349 96124
Horyu-4
1 41340U 16012D 17322.10157689 .00000826 00000-0 56702-4 0 9994
2 41340 31.0044 209.9639 0014152 160.8408 199.2762 15.00802533 96158
OUFTI-1
1 41458U 16025C 17322.38070740 .00002169 00000-0 11703-3 0 9993
2 41458 98.1680 8.7241 0173586 133.6218 227.9571 15.03932299 85742
e-st@r-II
1 41459U 16025D 17322.42031961 .00003228 00000-0 17299-3 0 9994
2 41459 98.1666 8.6760 0173658 134.2204 227.3443 15.03714360 85743
AAUSAT4
1 41460U 16025E 17322.44791441 .00003096 00000-0 16492-3 0 9991
2 41460 98.1622 8.9294 0166274 131.3138 230.2552 15.04879287 85781
NODES 1
1 41477U 98067HX 17262.38431888 .17021661 12538-4 46079-3 0 9990
2 41477 51.6074 225.8859 0003017 249.6794 110.5489 16.45625800 77086
NODES 2
1 41478U 98067HY 17266.27255257 .13534231 12598-4 22876-3 0 9990
2 41478 51.6086 206.1528 0005980 262.1280 97.9071 16.47641774 77698
LO-87
1 41557U 16033B 17322.30383758 .00002733 00000-0 10348-3 0 9991
2 41557 97.4539 41.7894 0014131 176.7326 183.4008 15.27709392 81958
NuSat2
1 41558U 16033C 17322.28834493 .00002801 00000-0 10655-3 0 9993
2 41558 97.4568 41.8445 0013609 175.3238 184.8130 15.27535848 81943
Lapan A3
1 41603U 16040E 17322.47370668 .00000378 00000-0 21036-4 0 9995
2 41603 97.4430 22.4553 0011845 256.1859 162.3473 15.19464328 78081
Swayam
1 41607U 16040J 17322.39355549 .00002920 00000-0 13261-3 0 9996
2 41607 97.4431 23.0602 0012474 255.2316 104.7537 15.21517494 78048
Pratham
1 41783U 16059A 17322.12964756 .00000139 00000-0 36355-4 0 9998
2 41783 98.1488 21.7581 0034384 39.9558 320.4164 14.62879612 61102
